Simultaneous Nadir Overpasses (SNOs) Predictions

Prediction of SNOs between FY3D and NOAA-19 Satellite Orbit:

Table of predicted SNOs for the next 14.0 days since TLE Epoch: 8/19/2023
Index Date (FY3D) Time (FY3D) Lat,Lon (FY3D) SZA (FY3D ) Date (NOAA-19) Time (NOAA-19) Lat,Lon (NOAA-19) SZA (NOAA-19 ) Distance(km) Time Diff (sec)
1 08/23/2023 00:31:30 -76.10, -14.07 115.47 08/23/2023 00:30:22 -76.07, -16.72 115.38 70.84 68
2 08/23/2023 01:22:23 76.38, 152.21 64.87 08/23/2023 01:21:09 76.41, 151.85 64.92 9.73 74
3 08/23/2023 02:13:09 -76.44, -40.69 115.06 08/23/2023 02:12:12 -76.46, -40.72 115.04 2.20 57
4 08/23/2023 03:03:56 76.45, 126.56 64.97 08/23/2023 03:03:07 76.45, 126.51 64.97 1.26 49
5 08/23/2023 03:54:41 -76.46, -66.17 115.01 08/23/2023 03:54:11 -76.45, -66.23 115.02 2.09 30
6 08/23/2023 04:45:28 76.48, 101.08 65.02 08/23/2023 04:45:05 76.49, 101.18 65.03 2.66 23
7 08/23/2023 05:36:13 -76.49, -91.65 114.96 08/23/2023 05:36:09 -76.49, -91.57 114.96 2.08 4
8 08/23/2023 06:27:00 76.50, 75.60 65.08 08/23/2023 06:27:04 76.48, 75.66 65.05 3.11 4
9 08/23/2023 07:17:44 -76.47,-116.96 114.95 08/23/2023 07:18:08 -76.49,-117.08 114.94 3.48 24
10 08/23/2023 08:08:31 76.49, 50.29 65.08 08/23/2023 08:09:03 76.48, 50.15 65.07 3.70 32
11 08/23/2023 08:59:16 -76.50,-142.44 114.90 08/23/2023 09:00:06 -76.53,-142.42 114.88 3.11 50
12 08/23/2023 09:50:03 76.51, 24.81 65.13 08/23/2023 09:51:01 76.52, 24.81 65.13 0.28 58
13 08/23/2023 10:40:50 -76.61,-168.26 114.75 08/23/2023 10:42:03 -76.61,-167.58 114.79 17.63 73
14 08/23/2023 11:31:45 76.98, -2.44 65.69 08/23/2023 11:32:50 76.94, 1.09 65.52 88.81 65



Historial Predications of SNOs between FY3D and NOAA-19
